Overview Statistics Trail Chart Weather Telemetry Raw packets
 

This is the latest recevied weather packets stored in our database for station/object KB4RFE. If no packets are shown the sender has not sent any weather packets the latest 10 day(s).

<< 23 24 25 26 27 28 29 >>
Time Temp. Humidity Pressure Rain* Wind** Luminosity Snow
1788469154 31.67° C 75% 1019.5 hPa 0 mm - 238 W/m² -
1788468854 32.22° C 75% 1019.6 hPa 0 mm - 274 W/m² -
1788468548 32.78° C 73% 1019.5 hPa 0 mm - 79 W/m² -
1788468245 32.22° C 74% 1019.5 hPa 0 mm - 412 W/m² -
1788467940 32.22° C 73% 1019.7 hPa 0 mm - 394 W/m² -
1788467636 32.22° C 73% 1019.6 hPa 0 mm - 439 W/m² -
1788467335 32.22° C 74% 1019.6 hPa 0 mm - 138 W/m² -
1788467031 32.78° C 76% 1019.8 hPa 0 mm - 131 W/m² -
1788466731 32.78° C 74% 1019.8 hPa 0 mm - 569 W/m² -
1788466427 33.33° C 72% 1019.9 hPa 0 mm - 557 W/m² -
1788466125 33.33° C 71% 1019.8 hPa 0 mm - 97 W/m² -
1788465820 33.33° C 73% 1019.8 hPa 0 mm - 528 W/m² -
1788465516 33.33° C 72% 1019.8 hPa 0 mm - 188 W/m² -
1788465212 33.33° C 72% 1019.9 hPa 0 mm - 557 W/m² -
1788464602 33.33° C 71% 1020 hPa 0 mm - 574 W/m² -
1788464298 33.33° C 74% 1020.1 hPa 0 mm - 595 W/m² -
1788463994 33.33° C 73% 1020 hPa 0 mm - 622 W/m² -
1788463688 33.33° C 74% 1020.1 hPa 0 mm - 637 W/m² -
1788463384 33.33° C 74% 1020.3 hPa 0 mm - 658 W/m² -
1788463080 33.33° C 72% 1020.1 hPa 0 mm - 541 W/m² -
1788462776 33.33° C 73% 1020.1 hPa 0 mm - 659 W/m² -
1788462477 33.33° C 74% 1020.2 hPa 0 mm - 715 W/m² -
1788462170 33.33° C 73% 1020.1 hPa 0 mm - 685 W/m² -
1788461865 33.33° C 73% 1020.2 hPa 0 mm - 687 W/m² -
1788461564 33.33° C 75% 1020.2 hPa 0 mm - 707 W/m² -

* Rain latest hour (hover to see other rain measurements)
** Current wind speed in m/s (hover to see current wind gust speed)